(°C)
13°
12°
12°
12°
11°
11°
11°
(°C)
ასა
ასა
ასა
ასა
სა
სამხრ.
სდ
(კმ/სთ)
15-23
15-21
17-19
17-22
16-23
12-17
11-14
(მმ)
0
0
0
0
0
0
1.1
(%)
1
1
2
6
13
49
75

მზის სიმაღლე

/ -10.9°
sun-icon
UV 2
06:28
18:26
მთვარის ბოლო მეოთხედი (19°)
08:03
19:04

METAR 52.17°ჩრ. 20.97°აღმ. (EPWA)-თვის

დრო პირობები ტემპერატურა/
ნამი
ქარი ხილვადობა ამინდი ღრუბლები წნევა ცვლილება დაუმუშავებელი
VFR 13°C / 10°C 130º 8kt >10km - Scattered Clouds 2000ft 999 No Significant change EPWA 271700Z 13008KT 9999 SCT020 13/10 Q0999 NOSIG
VFR 14°C / 10°C 130º 9kt >10km - Scattered Clouds 2000ft 999 No Significant change EPWA 271630Z 13009KT 9999 SCT020 14/10 Q0999 NOSIG
VFR 14°C / 10°C 120º 9kt >10km - Scattered Clouds 2300ft 999 No Significant change EPWA 271600Z 12009KT 9999 SCT023 14/10 Q0999 NOSIG
MVFR 14°C / 10°C 130º 9kt >10km - Broken Clouds 2300ft 999 No Significant change EPWA 271530Z 13009KT 9999 BKN023 14/10 Q0999 NOSIG
VFR 14°C / 10°C 130º 9kt >10km - Scattered Clouds 2000ft 999 No Significant change EPWA 271500Z 13009KT 9999 SCT020 14/10 Q0999 NOSIG
VFR 15°C / 10°C 110º 10kt >10km - Scattered Clouds 2000ft 999 No Significant change EPWA 271430Z 11010KT 9999 SCT020 15/10 Q0999 NOSIG
MVFR 15°C / 10°C 110º 10kt >10km - Broken Clouds 2000ft 999 No Significant change EPWA 271400Z 11010KT 9999 BKN020 15/10 Q0999 NOSIG
MVFR 15°C / 11°C 120º 9kt >10km - Broken Clouds 1800ft 1000 No Significant change EPWA 271330Z 12009KT 9999 BKN018 15/11 Q1000 NOSIG
MVFR 14°C / 11°C 110º 9kt >10km - Broken Clouds 1600ft 1000 No Significant change EPWA 271300Z 11009KT 9999 BKN016 14/11 Q1000 NOSIG
MVFR 14°C / 11°C 130º 9kt >10km - Broken Clouds 1500ft 1000 No Significant change EPWA 271230Z 13009KT 9999 BKN015 14/11 Q1000 NOSIG
MVFR 13°C / 11°C 140º 10kt >10km - Broken Clouds 1300ft 1000 Becoming: Broken Clouds 1500ft. EPWA 271200Z 14010KT 9999 BKN013 13/11 Q1000 BECMG BKN015
MVFR 13°C / 11°C 150º 9kt >10km - Broken Clouds 1000ft 1001 Becoming: Broken Clouds 1500ft. EPWA 271130Z 15009KT 9999 BKN010 13/11 Q1001 BECMG BKN015
IFR 13°C / 11°C 140º 8kt >10km - Broken Clouds 800ft 1001 Becoming: Broken Clouds 1200ft. EPWA 271100Z 14008KT 9999 BKN008 13/11 Q1001 BECMG BKN012
IFR 12°C / 11°C 130º 10kt >10km - Broken Clouds 600ft 1001 Becoming: Broken Clouds 1200ft. EPWA 271030Z 13010KT 9999 BKN006 12/11 Q1001 BECMG BKN012
IFR 12°C / 11°C 140º 11kt 9000m - Broken Clouds 600ft 1001 Becoming: Broken Clouds 1200ft. EPWA 271000Z 14011KT 9000 BKN006 12/11 Q1001 BECMG BKN012
IFR 12°C / 11°C 160º 7kt 9000m - Broken Clouds 600ft 1001 No Significant change EPWA 270930Z 16007KT 9000 BKN006 12/11 Q1001 NOSIG
IFR 12°C / 11°C 170º 6kt 8000m - Broken Clouds 500ft 1002 Becoming: Scattered Clouds 1200ft. EPWA 270900Z 17006KT 8000 BKN005 12/11 Q1002 BECMG SCT012
LIFR 12°C / 11°C 130º 9kt 9000m - Broken Clouds 400ft 1001 Becoming: Broken Clouds 500ft. EPWA 270830Z 13009KT 9000 BKN004 12/11 Q1001 BECMG BKN005
LIFR 11°C / 11°C 130º 10kt 5000m Mist Vertical Visibility of 0ft. 1001 Becoming: Broken Clouds 500ft. EPWA 270800Z 13010KT 5000 BR BKN003 11/11 Q1001 BECMG BKN005
LIFR 11°C / 10°C 160º variable 120º to 180º 8kt 3500m Mist Vertical Visibility of 0ft. 1001 Becoming: Visibility 5000. Mist . EPWA 270730Z 16008KT 120V180 3500 BR BKN002 11/10 Q1001 BECMG 5000 BR
LIFR 11°C / 10°C 130º 10kt 2100m Mist Vertical Visibility of 0ft. 1001 Temporary: Visibility 1400. EPWA 270700Z 13010KT 2100 BR BKN002 11/10 Q1001 TEMPO 1400
LIFR 11°C / 10°C 130º 7kt 690m. Runway 11: Visual range is 900m and decreasing. Fog Vertical Visibility of 0ft. 1001 Temporary: Visibility 1500. Mist . EPWA 270630Z 13007KT 0700 R11/0900D FG BKN002 11/10 Q1001 TEMPO 1500 BR
LIFR 11°C / 11°C 150º 6kt 1300m. Runway 33: Visual range is 1300m and decreasing. patches Fog Mist Vertical Visibility of 0ft. 1001 Temporary: Visibility 1500. Mist . EPWA 270600Z 15006KT 1300 0700SE R33/1300D BCFG BR BKN002 11/11 Q1001 TEMPO 1500 BR
LIFR 11°C / 11°C 160º variable 120º to 180º 4kt 1000m. Runway 33: Visual range is 1500m and decreasing. patches Fog Mist Vertical Visibility of 0ft. 1001 Temporary: Visibility 1500. Mist . EPWA 270530Z 16004KT 120V180 1000 0800W R33/1500D BCFG BR BKN002 11/11 Q1001 TEMPO 1500 BR

VFR

13°C / 10°C

[მეტი]
ქარი 130º 8kt
ხილვადობა >10km
ამინდი -
ღრუბლები Scattered Clouds 2000ft
წნევა 999
ცვლილება No Significant change
დაუმუშავებელი EPWA 271700Z 13008KT 9999 SCT020 13/10 Q0999 NOSIG

VFR

14°C / 10°C

[მეტი]
ქარი 130º 9kt
ხილვადობა >10km
ამინდი -
ღრუბლები Scattered Clouds 2000ft
წნევა 999
ცვლილება No Significant change
დაუმუშავებელი EPWA 271630Z 13009KT 9999 SCT020 14/10 Q0999 NOSIG

VFR

14°C / 10°C

[მეტი]
ქარი 120º 9kt
ხილვადობა >10km
ამინდი -
ღრუბლები Scattered Clouds 2300ft
წნევა 999
ცვლილება No Significant change
დაუმუშავებელი EPWA 271600Z 12009KT 9999 SCT023 14/10 Q0999 NOSIG

MVFR

14°C / 10°C

[მეტი]
ქარი 130º 9kt
ხილვადობა >10km
ამინდი -
ღრუბლები Broken Clouds 2300ft
წნევა 999
ცვლილება No Significant change
დაუმუშავებელი EPWA 271530Z 13009KT 9999 BKN023 14/10 Q0999 NOSIG

VFR

14°C / 10°C

[მეტი]
ქარი 130º 9kt
ხილვადობა >10km
ამინდი -
ღრუბლები Scattered Clouds 2000ft
წნევა 999
ცვლილება No Significant change
დაუმუშავებელი EPWA 271500Z 13009KT 9999 SCT020 14/10 Q0999 NOSIG

VFR

15°C / 10°C

[მეტი]
ქარი 110º 10kt
ხილვადობა >10km
ამინდი -
ღრუბლები Scattered Clouds 2000ft
წნევა 999
ცვლილება No Significant change
დაუმუშავებელი EPWA 271430Z 11010KT 9999 SCT020 15/10 Q0999 NOSIG

MVFR

15°C / 10°C

[მეტი]
ქარი 110º 10kt
ხილვადობა >10km
ამინდი -
ღრუბლები Broken Clouds 2000ft
წნევა 999
ცვლილება No Significant change
დაუმუშავებელი EPWA 271400Z 11010KT 9999 BKN020 15/10 Q0999 NOSIG

MVFR

15°C / 11°C

[მეტი]
ქარი 120º 9kt
ხილვადობა >10km
ამინდი -
ღრუბლები Broken Clouds 1800ft
წნევა 1000
ცვლილება No Significant change
დაუმუშავებელი EPWA 271330Z 12009KT 9999 BKN018 15/11 Q1000 NOSIG

MVFR

14°C / 11°C

[მეტი]
ქარი 110º 9kt
ხილვადობა >10km
ამინდი -
ღრუბლები Broken Clouds 1600ft
წნევა 1000
ცვლილება No Significant change
დაუმუშავებელი EPWA 271300Z 11009KT 9999 BKN016 14/11 Q1000 NOSIG

MVFR

14°C / 11°C

[მეტი]
ქარი 130º 9kt
ხილვადობა >10km
ამინდი -
ღრუბლები Broken Clouds 1500ft
წნევა 1000
ცვლილება No Significant change
დაუმუშავებელი EPWA 271230Z 13009KT 9999 BKN015 14/11 Q1000 NOSIG

MVFR

13°C / 11°C

[მეტი]
ქარი 140º 10kt
ხილვადობა >10km
ამინდი -
ღრუბლები Broken Clouds 1300ft
წნევა 1000
ცვლილება Becoming: Broken Clouds 1500ft.
დაუმუშავებელი EPWA 271200Z 14010KT 9999 BKN013 13/11 Q1000 BECMG BKN015

MVFR

13°C / 11°C

[მეტი]
ქარი 150º 9kt
ხილვადობა >10km
ამინდი -
ღრუბლები Broken Clouds 1000ft
წნევა 1001
ცვლილება Becoming: Broken Clouds 1500ft.
დაუმუშავებელი EPWA 271130Z 15009KT 9999 BKN010 13/11 Q1001 BECMG BKN015

IFR

13°C / 11°C

[მეტი]
ქარი 140º 8kt
ხილვადობა >10km
ამინდი -
ღრუბლები Broken Clouds 800ft
წნევა 1001
ცვლილება Becoming: Broken Clouds 1200ft.
დაუმუშავებელი EPWA 271100Z 14008KT 9999 BKN008 13/11 Q1001 BECMG BKN012

IFR

12°C / 11°C

[მეტი]
ქარი 130º 10kt
ხილვადობა >10km
ამინდი -
ღრუბლები Broken Clouds 600ft
წნევა 1001
ცვლილება Becoming: Broken Clouds 1200ft.
დაუმუშავებელი EPWA 271030Z 13010KT 9999 BKN006 12/11 Q1001 BECMG BKN012

IFR

12°C / 11°C

[მეტი]
ქარი 140º 11kt
ხილვადობა 9000m
ამინდი -
ღრუბლები Broken Clouds 600ft
წნევა 1001
ცვლილება Becoming: Broken Clouds 1200ft.
დაუმუშავებელი EPWA 271000Z 14011KT 9000 BKN006 12/11 Q1001 BECMG BKN012

IFR

12°C / 11°C

[მეტი]
ქარი 160º 7kt
ხილვადობა 9000m
ამინდი -
ღრუბლები Broken Clouds 600ft
წნევა 1001
ცვლილება No Significant change
დაუმუშავებელი EPWA 270930Z 16007KT 9000 BKN006 12/11 Q1001 NOSIG

IFR

12°C / 11°C

[მეტი]
ქარი 170º 6kt
ხილვადობა 8000m
ამინდი -
ღრუბლები Broken Clouds 500ft
წნევა 1002
ცვლილება Becoming: Scattered Clouds 1200ft.
დაუმუშავებელი EPWA 270900Z 17006KT 8000 BKN005 12/11 Q1002 BECMG SCT012

LIFR

12°C / 11°C

[მეტი]
ქარი 130º 9kt
ხილვადობა 9000m
ამინდი -
ღრუბლები Broken Clouds 400ft
წნევა 1001
ცვლილება Becoming: Broken Clouds 500ft.
დაუმუშავებელი EPWA 270830Z 13009KT 9000 BKN004 12/11 Q1001 BECMG BKN005

LIFR

11°C / 11°C

[მეტი]
ქარი 130º 10kt
ხილვადობა 5000m
ამინდი Mist
ღრუბლები Vertical Visibility of 0ft.
წნევა 1001
ცვლილება Becoming: Broken Clouds 500ft.
დაუმუშავებელი EPWA 270800Z 13010KT 5000 BR BKN003 11/11 Q1001 BECMG BKN005

LIFR

11°C / 10°C

[მეტი]
ქარი 160º variable 120º to 180º 8kt
ხილვადობა 3500m
ამინდი Mist
ღრუბლები Vertical Visibility of 0ft.
წნევა 1001
ცვლილება Becoming: Visibility 5000. Mist .
დაუმუშავებელი EPWA 270730Z 16008KT 120V180 3500 BR BKN002 11/10 Q1001 BECMG 5000 BR

LIFR

11°C / 10°C

[მეტი]
ქარი 130º 10kt
ხილვადობა 2100m
ამინდი Mist
ღრუბლები Vertical Visibility of 0ft.
წნევა 1001
ცვლილება Temporary: Visibility 1400.
დაუმუშავებელი EPWA 270700Z 13010KT 2100 BR BKN002 11/10 Q1001 TEMPO 1400

LIFR

11°C / 10°C

[მეტი]
ქარი 130º 7kt
ხილვადობა 690m. Runway 11: Visual range is 900m and decreasing.
ამინდი Fog
ღრუბლები Vertical Visibility of 0ft.
წნევა 1001
ცვლილება Temporary: Visibility 1500. Mist .
დაუმუშავებელი EPWA 270630Z 13007KT 0700 R11/0900D FG BKN002 11/10 Q1001 TEMPO 1500 BR

LIFR

11°C / 11°C

[მეტი]
ქარი 150º 6kt
ხილვადობა 1300m. Runway 33: Visual range is 1300m and decreasing.
ამინდი patches Fog Mist
ღრუბლები Vertical Visibility of 0ft.
წნევა 1001
ცვლილება Temporary: Visibility 1500. Mist .
დაუმუშავებელი EPWA 270600Z 15006KT 1300 0700SE R33/1300D BCFG BR BKN002 11/11 Q1001 TEMPO 1500 BR

LIFR

11°C / 11°C

[მეტი]
ქარი 160º variable 120º to 180º 4kt
ხილვადობა 1000m. Runway 33: Visual range is 1500m and decreasing.
ამინდი patches Fog Mist
ღრუბლები Vertical Visibility of 0ft.
წნევა 1001
ცვლილება Temporary: Visibility 1500. Mist .
დაუმუშავებელი EPWA 270530Z 16004KT 120V180 1000 0800W R33/1500D BCFG BR BKN002 11/11 Q1001 TEMPO 1500 BR

TAF 52.17°ჩრ. 20.97°აღმ. (EPWA)-თვის

From till


From till Wind 130º 10kt. Visibility 10km or more. Scattered Clouds 2500ft.
Becoming from till Wind 130º 10kt. Visibility 10km or more. Rain . Scattered Clouds 800ft. Broken Clouds 1400ft.
Temporarly from till Visibility 3000m. Showers Rain . Broken Clouds 500ft. Broken Clouds 1200ft.
Becoming from till Wind variable 2kt. Visibility 10km or more. Rain . Scattered Clouds 800ft. Broken Clouds 1400ft.
Becoming from till Wind 250º 10kt. Visibility 10km or more. Scattered Clouds 2500ft.

დაუმუშავებელი: TAF EPWA 271430Z 2715/2815 13010KT 9999 SCT025 BECMG 2721/2723 RA SCT008 BKN014 TEMPO 2721/2803 3000 SHRA BKN005 BKN012CB BECMG 2801/2804 VRB02KT BECMG 2806/2809 25010KT NSW SCT025

რადარის და ნალექების მაჩვენებელი 52.17°ჩრ. 20.97°აღმ. -თვის

გაწურეთ
Მსუბუქი
ზომიერი
Მძიმე
Ძალიან მძიმე
სეტყვა

მდებარეობის მარკერი მოთავსებულია 52.17°ჩრ. 20.97°აღმ. -ზე. ეს ანიმაცია აჩვენებს ნალექების სარადარო მონაცემებს როგორც ბოლო საათის განმავლობაში, ასევე 1h პროგნოზს. წვიმა ან თოვლის მსუბუქი ვარდნა შეიძლება უჩინარი იყოს რადარისთვის. ნალექების ინტენსივობა არის კოდირებული ფერით, დაწყებული ღია ლურჯიდან ნარინჯისფერამდე.

მიმდინარე სატელიტისა და წვიმის სურათები 52.17°ჩრ. 20.97°აღმ.-თვის

ლოკაციის მარკერი დაყენებყლია 52.17°ჩრ. 20.97°აღმ.ზე. [მეტი]

რეალურ დროში სატელიტური სურათი აერთიანებს ხილულ სინათლეს დღისით ღამის განმავლობაში ინფრაწითელ გამოსხივებასთან ერთად. ღამით, სურათი არ არის მუქი, რადგან ინფრაწითელ გამოსხივებას შეუძლია ტემპერატურის განსხვავებების დადგენა. სამწუხაროდ, დაბალი ღრუბლები და ნისლი ძნელია განასხვავონ მიწის ტემპერატურისგან და, შესაბამისად, ისინი შეიძლება თითქმის არ ჩანდეს ღამით. Meteosat სატელიტური გამოსახულება ევროპისთვის ახლდება რეალურ დროში ყოველ 5 წუთში. GOES-16/GOES-17 (ჩრდილოეთი და სამხრეთ ამერიკა) და ჰიმავარი (აზია) გამოსახულებები ახლდება ყოველ 10 წუთში.

Precipitation is estimated from radar and satellites. Precipitation estimates from satellites are less accurate at night than during daytime. ნარინჯისფერი ჯვრები აღნიშნავს ადგილებს, სადაც ელვა იყო დაფიქსირებული (ევროპაზე).

საავტორო უფლებები 2022 EUMETSAT / meteoblue. ელვის შესახებ მონაცემები მოწოდებული nowcast მიერ.

თავში დაბრუნება